This demonstration page uses our WeatherBlox Daily Observations layout. Learn more.

Left ArrowRight Arrow

40.92945, -100.16068

Hourly Observations for May 27, 2020

Temp ( °F °C ) Dew Point ( °F °C ) Humidity (%) Winds ( mph kmh ) Pressure ( in mb ) Visibility ( mi km ) Precip ( " mm )
12:15 am 00:15 Clear 56 13.5 53 11.4 87 87 Calm 29.92 1013 10 16.0934 0 0
12:35 am 00:35 Clear 55 12.7 52 11.2 91 91 Calm 29.94 1014 10 16.0934 0 0
12:55 am 00:55 Clear 54 12.1 51 10.8 92 92 Calm 29.94 1014 10 16.0934 0 0
1:15 am 01:15 Clear 53 11.8 51 10.8 94 94 Calm 29.94 1014 10 16.0934 0 0
1:35 am 01:35 Clear 55 12.5 52 11.1 91 91 Calm 29.94 1014 10 16.0934 0 0
1:55 am 01:55 Clear 53 11.6 51 10.7 94 94 NNW 3 6 29.95 1014 10 16.0934 0 0
2:15 am 02:15 Clear 52 11.3 51 10.3 94 94 NW 5 7 29.96 1015 10 16.0934 0 0
2:35 am 02:35 Clear 52 11 50 10 94 94 WNW 3 6 29.96 1015 10 16.0934 0 0
2:55 am 02:55 Clear 52 11.1 50 10.2 94 94 W 6 9 29.96 1015 10 16.0934 0 0
3:15 am 03:15 Clear 51 10.7 50 10 95 95 WNW 6 9 29.96 1015 10 16.0934 0 0
3:35 am 03:35 Clear 50 10.2 49 9.6 96 96 WNW 7 11 29.97 1015 10 16.0934 0 0
3:55 am 03:55 Clear 50 10 49 9.2 95 95 NW 6 9 29.97 1015 10 16.0934 0 0
4:15 am 04:15 Clear 49 9.7 48 9 95 95 NW 6 9 29.98 1015 10 16.0934 0 0
4:35 am 04:35 Clear 51 10.6 49 9.5 93 93 WNW 3 6 29.98 1015 10 16.0934 0 0
4:55 am 04:55 Clear 49 9.4 48 8.8 96 96 WNW 5 7 29.99 1015 10 16.0934 0 0
5:15 am 05:15 Clear 49 9.3 47 8.6 95 95 WNW 6 9 29.98 1015 10 16.0934 0 0
5:35 am 05:35 Clear 48 8.8 47 8.2 96 96 NW 6 9 29.98 1015 10 16.0934 0 0
5:55 am 05:55 Clear 48 9.1 47 8.4 95 95 Calm 29.98 1015 10 16.0934 0 0
6:15 am 06:15 Sunny 48 8.9 47 8.4 97 97 W 7 11 29.99 1016 10 16.0934 0 0
6:35 am 06:35 Sunny 49 9.3 47 8.6 95 95 W 6 9 29.99 1015 10 16.0934 0 0
6:55 am 06:55 Sunny 49 9.5 48 8.7 95 95 Calm 30 1016 10 16.0934 0 0
7:15 am 07:15 Sunny 51 10.4 49 9.4 94 94 Calm 29.99 1015 10 16.0934 0 0
7:35 am 07:35 Sunny 53 11.7 50 10 89 89 Calm 29.98 1015 10 16.0934 0 0
7:55 am 07:55 Sunny 55 12.5 51 10.7 89 89 Calm 29.97 1015 10 16.0934 0 0
8:15 am 08:15 Sunny 56 13.2 51 10.8 86 86 Calm 29.96 1015 10 16.0934 0 0
8:35 am 08:35 Sunny 57 14.1 51 10.4 79 79 Calm 29.96 1015 10 16.0934 0 0
8:55 am 08:55 Sunny 59 15.2 52 10.9 76 76 Calm 29.95 1014 10 16.0934 0 0
9:15 am 09:15 Sunny 61 16 52 10.9 72 72 Calm 29.95 1014 10 16.0934 0 0
9:35 am 09:35 Sunny 63 17.4 54 12.1 71 71 NW 5 7 29.93 1014 10 16.0934 0 0
9:55 am 09:55 Sunny 65 18.2 55 12.7 70 70 NW 3 6 29.92 1013 10 16.0934 0 0
10:15 am 10:15 Sunny 66 19.1 56 13.1 68 68 Calm 29.91 1013 10 16.0934 0 0
10:35 am 10:35 Sunny 69 20.3 56 13.4 65 65 Calm 29.9 1013 10 16.0934 0 0
10:55 am 10:55 Sunny 72 22.1 52 11.2 50 50 N 10 17 29.88 1012 10 16.0934 0 0
11:15 am 11:15 Sunny 71 21.9 52 10.9 50 50 NNE 10 17 29.89 1012 10 16.0934 0 0
11:35 am 11:35 Sunny 71 21.7 52 10.9 50 50 N 10 17 29.89 1012 10 16.0934 0 0
11:55 am 11:55 Sunny 73 22.8 52 11.2 48 48 NNE 9 15 29.88 1012 10 16.0934 0 0
12:15 pm 12:15 Sunny 72 22 53 11.9 53 53 NNE 9 15 29.89 1012 10 16.0934 0 0
12:35 pm 12:35 Sunny 73 22.9 54 12.1 51 51 NE 8 13 29.88 1012 10 16.0934 0 0
12:55 pm 12:55 Sunny 74 23.4 53 11.7 48 48 NE 13 20 29.87 1012 10 16.0934 0 0
1:15 pm 13:15 Sunny 75 23.7 55 12.5 50 50 NE 14 22 29.87 1012 10 16.0934 0 0
1:35 pm 13:35 Sunny 74 23.1 53 11.9 49 49 E 6 9 29.88 1012 10 16.0934 0 0
1:55 pm 13:55 Sunny 73 23 54 12.4 51 51 ENE 12 19 29.87 1011 10 16.0934 0 0
2:15 pm 14:15 Sunny 73 23 54 12.2 51 51 ENE 10 17 29.87 1011 10 16.0934 0 0
2:35 pm 14:35 Sunny 74 23.5 55 13 52 52 ENE 9 15 29.86 1011 10 16.0934 0 0
2:55 pm 14:55 Sunny 73 22.5 54 12.2 52 52 ENE 7 11 29.86 1011 10 16.0934 0 0
3:15 pm 15:15 Sunny 74 23.5 54 12.3 50 50 NE 9 15 29.85 1011 10 16.0934 0 0
3:35 pm 15:35 Sunny 74 23.5 54 12.4 50 50 NNE 8 13 29.85 1011 10 16.0934 0 0
3:55 pm 15:55 Sunny 74 23.5 56 13.1 52 52 NNE 13 20 29.85 1011 10 16.0934 0 0
4:15 pm 16:15 Sunny 75 23.7 54 12.1 48 48 NE 9 15 29.85 1011 10 16.0934 0 0
4:35 pm 16:35 Sunny 75 24 54 12.2 48 48 NE 7 11 29.84 1010 10 16.0934 0 0
4:55 pm 16:55 Sunny 75 24.1 55 12.9 50 50 E 5 7 29.84 1010 10 16.0934 0 0
5:15 pm 17:15 Sunny 75 24 54 12.2 48 48 ENE 8 13 29.84 1010 10 16.0934 0 0
5:35 pm 17:35 Sunny 75 24 54 12.2 48 48 NE 10 17 29.84 1010 10 16.0934 0 0
5:55 pm 17:55 Sunny 74 23.6 54 12.2 49 49 ENE 8 13 29.84 1011 10 16.0934 0 0
6:15 pm 18:15 Sunny 75 24.1 55 12.5 48 48 ENE 8 13 29.84 1010 10 16.0934 0 0
6:35 pm 18:35 Sunny 74 23.5 53 11.7 48 48 NE 7 11 29.84 1011 10 16.0934 0 0
6:55 pm 18:55 Sunny 71 21.9 55 12.5 55 55 ENE 7 11 29.86 1011 10 16.0934 0 0
7:15 pm 19:15 Sunny 70 21.1 54 12.4 58 58 ENE 7 11 29.86 1011 10 16.0934 0 0
7:35 pm 19:35 Sunny 71 21.4 56 13.2 60 60 ENE 7 11 29.86 1011 10 16.0934 0 0
7:55 pm 19:55 Sunny 70 21.2 56 13.3 61 61 ENE 7 11 29.87 1012 10 16.0934 0 0
8:15 pm 20:15 Sunny 69 20.4 56 13.6 65 65 ENE 6 9 29.88 1012 10 16.0934 0 0
8:35 pm 20:35 Sunny 67 19.4 57 13.9 71 71 ENE 5 7 29.89 1012 10 16.0934 0 0
8:55 pm 20:55 Sunny 67 19.4 55 12.7 65 65 ENE 5 7 29.9 1012 10 16.0934 0 0
9:15 pm 21:15 Clear 63 17 55 12.5 75 75 ENE 7 11 29.92 1013 10 16.0934 0 0
9:35 pm 21:35 Clear 62 16.8 54 12.4 75 75 ENE 6 9 29.93 1014 10 16.0934 0 0
9:55 pm 21:55 Clear 61 16 54 12.1 78 78 ENE 6 9 29.94 1014 10 16.0934 0 0
10:15 pm 22:15 Clear 60 15.6 54 12.2 80 80 ENE 5 7 29.95 1014 10 16.0934 0 0
10:35 pm 22:35 Clear 59 15.2 54 12 81 81 ENE 5 7 29.94 1014 10 16.0934 0 0
10:55 pm 22:55 Clear 58 14.4 53 11.9 85 85 Calm 29.97 1015 10 16.0934 0 0
11:15 pm 23:15 Clear 57 14.1 53 11.9 87 87 NE 5 7 29.97 1015 10 16.0934 0 0
11:35 pm 23:35 Clear 58 14.3 54 12 86 86 Calm 29.98 1015 10 16.0934 0 0
11:50 pm 23:50 Clear 58 14.2 53 11.7 85 85 Calm 29.98 1015 10 16.0934 0 0

Powered by AerisWeather